COSMOS 886 DEB, 9656

Orbit data source: Space-Track

COSMOS 886 DEB, 9656 is space debris in LEO originally from a launch on Mon, 27 Dec 1976 UTC launched from the Tyuratam Missile And Space Complex (TTMTR). Debris objects in space refer to the collection of defunct objects orbiting the Earth. Examples of debris include non-operational satellites, rocket bodies, and fragments generated from explosions, collisions, or faulty payload assembly.

Loading next visibility...
Identifier
9656, 1976-126N
Orbit
LEO
Country
Flag of CISCIS
Related business
Manufacturer
Unknown
Mission
Spacecraft
Bus & Motor
Unknown
Mass
Unknown
Launch date (UTC)
1976-12-27 (49 years ago)
Launch vehicle
Unknown
Launch site
Tyuratam Missile And Space Complex (TTMTR)
Object type
Payload
Rocket body
Debris
Shape & HBR
Unknown shape, 0.2 m
Radar Cross Section
Medium (>0.1 m² and <1 m²)

Expand to show TLE details & history
Last TLE update: 1 day ago

TLE from 1 day ago
0 COSMOS 886 DEB
1 09656U 76126N   26167.94248135  .00001037  00000-0  78259-3 0  9991
2 09656  65.8205 120.2552 0852404  77.0166 292.4548 12.90939940282182
Epoch: 2026-06-16T22:37Z
TLE epoch observation values (Epoch: 2026-06-16T22:37:10.388Z)
Latitude
-0.00008°
Longitude
-124.2454°
Altitude
1,099.615 km
Speed
7.397 km/s
True Right ascension
08h 01m 01s
True Declination
0° 00' 00"
Sunlit
Object was in daylight at epoch
Visualization orbit readout
Latitude
Unknown
Longitude
Unknown
Altitude
Unknown
Speed
Unknown
Apparent Right ascension
Unknown
Apparent Declination
Unknown
Sunlit
N/A
Visualization observer readout
Local Sidereal Time
13:16:23
Azimuth
Unknown
Elevation
Unknown
Doppler factor
Unknown
Orbital elements
Apogee altitude
1,950.537 km
Perigee altitude
642.183 km
Semi-major axis
7,674.497 km
Eccentricity
0.08524
Inclination
65.8205°
RAAN
120.2552°
Arg. of periapsis
77.0166°
True anomaly
283.08738°
Mean anomaly
292.4548°
Eccentric anomaly
287.80481°
Mean motion
3.22826 °/min
Orbital period
111.52 mins
BSTAR
0.00078259
Loading maneuver chart data...
Computing Atmospheric mass density...

Documentation

Showing up to 5 results
|